Tracking 19177 objects as of 24-May-2018
HD Live streaming from Space Station
objects crossing your sky now

NOAA 16 DEB

Track NOAA 16 DEB now!
10-day predictions


NORAD ID: 41152
Int'l Code: 2000-055CK
Perigee: 835.4 km
Apogee: 856.3 km
Inclination: 98.9 °
Period: 101.7 minutes
Semi major axis: 7216 km
RCS: Unknown
Launch date: September 21, 2000
Source: United States (US)
Launch site: AIR FORCE WESTERN TEST RANGE (AFWTR)

Note: This is SATELLITE DEBRIS
aabbcc
Your satellite tracking list
Your tracking list is empty




NASA's NSSDC Master Catalog

Two Line Element Set (TLE):
1 41152U 00055CK  18141.01571217 +.00000664 +00000-0 +35857-3 0  9999
2 41152 098.8705 220.7584 0014479 048.7697 311.4722 14.16045284127551
Source of the keplerian elements: AFSPC